EW8543 Weather Reports


Display with metric or nautical units.
time (UTC)temp
F
wind
direction
speed
MPH
gust
MPH
rain 1hr
in
rain 24hr
in
rain mn
in
humidity
%
barometer
mb
20260509101037 65 13 3.0 6.0 0.00 0.00 0.00 54 1019.0
20260509100545 65 355 2.0 5.0 0.00 0.00 0.00 55 1019.0
20260509100042 66 5 2.0 8.0 0.00 0.00 0.00 55 1019.0
20260509095550 66 63 2.0 8.0 0.00 0.00 0.00 52 1019.0
20260509095057 66 81 2.0 6.0 0.00 0.00 0.00 55 1019.0
20260509094606 65 56 1.0 9.0 0.00 0.00 0.00 53 1019.0
20260509094048 65 93 1.0 6.0 0.00 0.00 0.00 55 1018.9
20260509093535 66 5 3.0 6.0 0.00 0.00 0.00 56 1019.0
20260509093108 66 93 2.0 6.0 0.00 0.00 0.00 56 1019.1
20260509092534 66 98 3.0 6.0 0.00 0.00 0.00 57 1019.1
20260509092057 65 70 1.0 7.0 0.00 0.00 0.00 58 1019.2
20260509091610 65 51 2.0 7.0 0.00 0.00 0.00 58 1019.2
20260509091039 65 88 2.0 9.0 0.00 0.00 0.00 59 1019.2
20260509090549 65 55 4.0 10.0 0.00 0.00 0.00 60 1019.2
20260509090108 64 88 2.0 10.0 0.00 0.00 0.00 61 1019.2
20260509085534 64 90 2.0 11.0 0.00 0.00 0.00 61 1019.2
20260509085042 64 86 3.0 11.0 0.00 0.00 0.00 62 1019.1
20260509084551 63 77 2.0 5.0 0.00 0.00 0.00 62 1019.2
20260509084037 63 126 1.0 10.0 0.00 0.00 0.00 63 1019.1
20260509083543 62 61 4.0 10.0 0.00 0.00 0.00 63 1019.2
20260509083032 62 78 2.0 10.0 0.00 0.00 0.00 63 1019.2
20260509082541 62 86 4.0 10.0 0.00 0.00 0.00 64 1019.2
20260509082049 62 63 4.0 9.0 0.00 0.00 0.00 65 1019.2
20260509081535 62 121 4.0 10.0 0.00 0.00 0.00 66 1019.2
20260509081041 61 74 3.0 10.0 0.00 0.00 0.00 68 1019.2
20260509080550 61 108 5.0 10.0 0.00 0.00 0.00 69 1019.2
20260509080112 61 34 2.0 7.0 0.00 0.00 0.00 68 1019.2
20260509075538 60 126 2.0 6.0 0.00 0.00 0.00 70 1019.2
20260509075042 60 73 2.0 8.0 0.00 0.00 0.00 70 1019.2
20260509074532 60 103 3.0 9.0 0.00 0.00 0.00 71 1019.2
20260509074039 59 59 4.0 9.0 0.00 0.00 0.00 72 1019.2
20260509073547 59 44 2.0 10.0 0.00 0.00 0.00 72 1019.2
20260509073034 59 113 5.0 10.0 0.00 0.00 0.00 73 1019.2
20260509072538 59 74 4.0 9.0 0.00 0.00 0.00 74 1019.2
20260509072046 59 57 5.0 9.0 0.00 0.00 0.00 74 1019.2
20260509071534 58 67 4.0 9.0 0.00 0.00 0.00 75 1019.2
20260509071039 58 71 3.0 9.0 0.00 0.00 0.00 76 1019.2
20260509070548 57 74 2.0 8.0 0.00 0.00 0.00 77 1019.2
20260509070046 57 86 3.0 8.0 0.00 0.00 0.00 77 1019.2
20260509065536 56 94 3.0 9.0 0.00 0.00 0.00 78 1019.2
20260509065043 56 67 3.0 9.0 0.00 0.00 0.00 79 1019.3
20260509064554 55 73 3.0 8.0 0.00 0.00 0.00 80 1019.2
20260509064041 55 74 1.0 6.0 0.00 0.00 0.00 81 1019.2
20260509063546 55 117 2.0 6.0 0.00 0.00 0.00 81 1019.2
20260509063056 54 70 1.0 4.0 0.00 0.00 0.00 82 1019.2
20260509062543 54 76 1.0 8.0 0.00 0.00 0.00 82 1019.3
20260509062032 54 65 2.0 8.0 0.00 0.00 0.00 83 1019.3
20260509061539 53 76 1.0 4.0 0.00 0.00 0.00 83 1019.2
20260509061048 53 69 0.0 6.0 0.00 0.00 0.00 84 1019.3
20260509060536 53 104 1.0 6.0 0.00 0.00 0.00 85 1019.3
20260509060039 52 87 2.0 4.0 0.00 0.00 0.00 86 1019.2
20260509055548 52 86 2.0 4.0 0.00 0.00 0.00 87 1019.2
20260509055051 52 78 1.0 4.0 0.00 0.00 0.00 87 1019.2
20260509054540 51 78 1.0 4.0 0.00 0.00 0.00 87 1019.2
20260509054050 51 78 1.0 3.0 0.00 0.00 0.00 88 1019.2
20260509053539 51 78 0.0 3.0 0.00 0.00 0.00 88 1019.2
20260509053046 50 78 0.0 4.0 0.00 0.00 0.00 89 1019.1
20260509052532 50 78 2.0 4.0 0.00 0.00 0.00 89 1019.1
20260509052039 50 62 1.0 4.0 0.00 0.00 0.00 90 1019.1
20260509051611 49 62 1.0 4.0 0.00 0.00 0.00 90 1019.0
20260509051039 49 28 1.0 3.0 0.00 0.00 0.00 90 1019.0
20260509050548 49 28 1.0 2.0 0.00 0.00 0.00 91 1019.1
20260509050046 48 28 1.0 3.0 0.00 0.00 0.00 91 1019.0
20260509045534 48 28 1.0 3.0 0.00 0.00 0.00 91 1019.0
20260509045043 48 28 1.0 2.0 0.00 0.00 0.00 91 1019.0
20260509044531 48 28 1.0 2.0 0.00 0.00 0.00 91 1019.0
20260509044040 48 28 0.0 2.0 0.00 0.00 0.00 90 1019.1
20260509043546 48 28 1.0 2.0 0.00 0.00 0.00 90 1019.1
20260509043034 48 28 1.0 3.0 0.00 0.00 0.00 90 1019.0
20260509042544 48 28 1.0 3.0 0.00 0.00 0.00 90 1019.1
20260509042032 48 28 0.0 3.0 0.00 0.00 0.00 90 1019.0
20260509041541 48 28 1.0 2.0 0.00 0.00 0.00 90 1019.0
20260509041046 48 28 1.0 2.0 0.00 0.00 0.00 90 1019.0
20260509040534 48 28 1.0 2.0 0.00 0.00 0.00 90 1019.0
20260509040035 48 28 1.0 2.0 0.00 0.00 0.00 90 1019.0
20260509035541 48 28 1.0 2.0 0.00 0.00 0.00 90 1018.9
20260509035046 48 28 1.0 2.0 0.00 0.00 0.00 90 1018.8
20260509034534 48 28 1.0 2.0 0.00 0.00 0.00 90 1018.8
20260509034043 48 28 1.0 2.0 0.00 0.00 0.00 90 1018.9
20260509033552 48 28 1.0 3.0 0.00 0.00 0.00 90 1018.8
20260509033040 48 28 1.0 3.0 0.00 0.00 0.00 90 1018.8
20260509032545 48 28 1.0 2.0 0.00 0.00 0.00 89 1018.9
20260509032034 48 28 1.0 2.0 0.00 0.00 0.00 89 1018.9
20260509031543 48 28 1.0 2.0 0.00 0.00 0.00 89 1018.9
20260509031051 48 28 1.0 2.0 0.00 0.00 0.00 89 1018.9
20260509030539 48 28 1.0 3.0 0.00 0.00 0.00 89 1018.9
20260509030033 48 28 1.0 3.0 0.00 0.00 0.00 89 1018.9
20260509025543 48 28 1.0 2.0 0.00 0.00 0.00 89 1019.0
20260509025032 48 28 1.0 2.0 0.00 0.00 0.00 89 1019.0
20260509024540 48 28 0.0 2.0 0.00 0.00 0.00 89 1019.0
20260509024049 48 28 1.0 3.0 0.00 0.00 0.00 89 1019.0
20260509023535 48 28 1.0 3.0 0.00 0.00 0.00 89 1018.9
20260509023043 48 28 1.0 3.0 0.00 0.00 0.00 89 1018.9
20260509022531 48 28 1.0 2.0 0.00 0.00 0.00 89 1018.9
20260509022037 48 28 0.0 1.0 0.00 0.00 0.00 88 1018.9
20260509021602 48 28 0.0 1.0 0.00 0.00 0.00 88 1018.9
20260509021049 48 28 1.0 1.0 0.00 0.00 0.00 87 1018.9
20260509020537 48 28 0.0 1.0 0.00 0.00 0.00 87 1018.9
20260509020039 48 28 0.0 0.0 0.00 0.00 0.00 87 1018.9
20260509015548 49 28 0.0 1.0 0.00 0.00 0.00 87 1018.9
20260509015054 49 28 0.0 2.0 0.00 0.00 0.00 87 1019.0
20260509014543 49 28 0.0 2.0 0.00 0.00 0.00 86 1019.0
20260509014050 49 28 0.0 1.0 0.00 0.00 0.00 86 1019.0
20260509013540 49 28 0.0 2.0 0.00 0.00 0.00 86 1018.9
20260509013048 49 28 0.0 2.0 0.00 0.00 0.00 87 1018.9
20260509012531 49 28 1.0 2.0 0.00 0.00 0.00 86 1018.9
20260509012039 49 28 0.0 2.0 0.00 0.00 0.00 86 1019.0
20260509011548 49 28 1.0 3.0 0.00 0.00 0.00 86 1019.1
20260509011037 49 28 0.0 3.0 0.00 0.00 0.00 85 1019.1
20260509010546 49 28 1.0 3.0 0.00 0.00 0.00 85 1019.2
20260509010043 49 28 1.0 3.0 0.00 0.00 0.00 85 1019.2
20260509005552 49 28 1.0 2.0 0.00 0.00 0.00 86 1019.2
20260509005039 49 28 1.0 2.0 0.00 0.00 0.00 87 1019.2
20260509004549 49 28 1.0 2.0 0.00 0.00 0.00 87 1019.1
20260509004050 49 28 1.0 2.0 0.00 0.00 0.00 87 1019.1
20260509003539 49 28 0.0 2.0 0.00 0.00 0.00 86 1019.1
20260509003111 49 28 0.0 2.0 0.00 0.00 0.00 86 1019.1
20260509002539 49 28 0.0 0.0 0.00 0.00 0.00 86 1019.0
20260509002048 49 28 0.0 0.0 0.00 0.00 0.00 85 1019.0
20260509001533 49 28 0.0 0.0 0.00 0.00 0.00 85 1019.0
20260509001041 49 28 0.0 0.0 0.00 0.00 0.00 85 1019.0
20260509000531 49 28 0.0 0.0 0.00 0.00 0.00 85 1019.0
20260509000031 49 28 0.0 1.0 0.00 0.00 0.00 84 1019.1
20260508235541 50 28 0.0 1.0 0.00 0.00 0.00 84 1019.0
20260508235045 50 28 0.0 0.0 0.00 0.00 0.00 84 1019.0
20260508234533 50 28 0.0 0.0 0.00 0.00 0.00 84 1019.0
20260508234107 50 28 0.0 0.0 0.00 0.00 0.00 84 1019.1
20260508233535 50 28 0.0 0.0 0.00 0.00 0.00 83 1019.1
20260508233059 50 28 0.0 0.0 0.00 0.00 0.00 83 1019.1
20260508232548 50 28 0.0 0.0 0.00 0.00 0.00 83 1019.0
20260508232035 50 28 0.0 0.0 0.00 0.00 0.00 83 1019.1
20260508231604 50 28 0.0 0.0 0.00 0.00 0.00 83 1019.0
20260508231032 50 28 0.0 0.0 0.00 0.00 0.00 82 1019.0
20260508230536 50 28 0.0 0.0 0.00 0.00 0.00 83 1019.0
20260508230041 50 28 0.0 0.0 0.00 0.00 0.00 82 1019.0
20260508225549 51 28 0.0 0.0 0.00 0.00 0.00 82 1019.0
20260508225038 51 28 0.0 0.0 0.00 0.00 0.00 82 1018.8
20260508224543 51 28 0.0 0.0 0.00 0.00 0.00 82 1018.9
20260508224049 51 28 0.0 0.0 0.00 0.00 0.00 82 1018.9
20260508223538 51 28 0.0 1.0 0.00 0.00 0.00 82 1019.0
20260508223048 51 28 0.0 1.0 0.00 0.00 0.00 81 1019.0
20260508222536 51 28 0.0 1.0 0.00 0.00 0.00 81 1019.0
20260508222042 51 28 0.0 0.0 0.00 0.00 0.00 80 1019.0
20260508221550 51 28 0.0 0.0 0.00 0.00 0.00 80 1019.1
20260508221058 51 28 0.0 0.0 0.00 0.00 0.00 81 1019.1
20260508220546 52 28 0.0 0.0 0.00 0.00 0.00 81 1019.1
20260508220050 52 28 0.0 0.0 0.00 0.00 0.00 81 1019.0
20260508215535 52 28 0.0 0.0 0.00 0.00 0.00 81 1019.1
20260508215045 52 28 0.0 1.0 0.00 0.00 0.00 81 1019.1
20260508214533 52 28 0.0 1.0 0.00 0.00 0.00 80 1019.2
20260508214043 52 28 0.0 2.0 0.00 0.00 0.00 80 1019.2
20260508213533 52 28 1.0 2.0 0.00 0.00 0.00 79 1019.2
20260508213058 53 28 0.0 2.0 0.00 0.00 0.00 80 1019.2
20260508212546 53 28 0.0 1.0 0.00 0.00 0.00 80 1019.1
20260508212035 53 28 0.0 1.0 0.00 0.00 0.00 80 1019.2
20260508211543 53 28 0.0 1.0 0.00 0.00 0.00 80 1019.2
20260508211033 53 28 0.0 1.0 0.00 0.00 0.00 80 1019.2
20260508210538 53 28 0.0 1.0 0.00 0.00 0.00 80 1019.1
20260508210039 53 28 0.0 1.0 0.00 0.00 0.00 80 1019.1
20260508205530 53 28 0.0 1.0 0.00 0.00 0.00 79 1019.1
20260508205040 54 28 0.0 1.0 0.00 0.00 0.00 80 1019.1
20260508204545 54 28 0.0 1.0 0.00 0.00 0.00 80 1019.0
20260508204034 54 28 0.0 1.0 0.00 0.00 0.00 80 1019.0
20260508203544 54 28 0.0 1.0 0.00 0.00 0.00 79 1019.0
20260508203031 54 28 0.0 2.0 0.00 0.00 0.00 79 1019.0
20260508202541 55 28 0.0 2.0 0.00 0.00 0.00 78 1019.0
20260508202045 55 28 1.0 2.0 0.00 0.00 0.00 78 1019.0
20260508201534 55 28 1.0 2.0 0.00 0.00 0.00 78 1019.0
20260508201041 55 28 1.0 2.0 0.00 0.00 0.00 78 1018.9
20260508200548 55 28 0.0 2.0 0.00 0.00 0.00 77 1018.9
20260508200031 56 28 1.0 2.0 0.00 0.00 0.00 77 1018.9
20260508195537 56 28 0.0 2.0 0.00 0.00 0.00 76 1018.9
20260508195044 56 28 0.0 3.0 0.00 0.00 0.00 76 1018.9
20260508194533 56 28 1.0 3.0 0.00 0.00 0.00 75 1018.8
20260508194042 56 28 0.0 3.0 0.00 0.00 0.00 74 1018.8
20260508193551 57 28 0.0 3.0 0.00 0.00 0.00 74 1018.8
20260508193033 57 28 1.0 3.0 0.00 0.00 0.00 73 1018.8
20260508192604 57 28 1.0 3.0 0.00 0.00 0.00 72 1018.7
20260508192051 58 28 1.0 3.0 0.00 0.00 0.00 71 1018.7
20260508191559 58 12 2.0 3.0 0.00 0.00 0.00 71 1018.6
20260508191042 58 28 1.0 3.0 0.00 0.00 0.00 70 1018.6
20260508190531 58 28 2.0 3.0 0.00 0.00 0.00 70 1018.5
20260508190033 59 28 1.0 4.0 0.00 0.00 0.00 69 1018.5
20260508185542 59 28 1.0 5.0 0.00 0.00 0.00 69 1018.4
20260508185045 59 28 2.0 5.0 0.00 0.00 0.00 69 1018.4
20260508184554 59 27 2.0 5.0 0.00 0.00 0.00 69 1018.4
20260508184103 59 331 3.0 5.0 0.00 0.00 0.00 68 1018.3
20260508183531 59 34 1.0 5.0 0.00 0.00 0.00 68 1018.3
20260508183055 59 32 2.0 5.0 0.00 0.00 0.00 67 1018.3
20260508182608 60 5 2.0 6.0 0.00 0.00 0.00 67 1018.3
20260508182036 60 19 2.0 6.0 0.00 0.00 0.00 67 1018.2
20260508181544 60 346 3.0 8.0 0.00 0.00 0.00 67 1018.1
20260508181030 60 355 3.0 8.0 0.00 0.00 0.00 66 1018.1
20260508180535 60 333 2.0 6.0 0.00 0.00 0.00 66 1018.0
20260508180037 60 9 3.0 8.0 0.00 0.00 0.00 67 1018.0
20260508175547 60 38 4.0 8.0 0.00 0.00 0.00 67 1018.0
20260508175056 60 34 3.0 8.0 0.00 0.00 0.00 67 1017.9
20260508174540 60 360 3.0 7.0 0.00 0.00 0.00 67 1017.9
20260508174047 60 5 3.0 8.0 0.00 0.00 0.00 68 1017.9
20260508173536 60 343 4.0 7.0 0.00 0.00 0.00 68 1017.8
20260508173044 60 348 3.0 8.0 0.00 0.00 0.00 68 1017.8
20260508172533 60 31 3.0 8.0 0.00 0.00 0.00 68 1017.8
20260508172037 60 18 2.0 10.0 0.00 0.00 0.00 68 1017.7
20260508171545 60 344 5.0 10.0 0.00 0.00 0.00 67 1017.7
20260508171033 60 25 5.0 10.0 0.00 0.00 0.00 68 1017.7
20260508170542 60 346 4.0 10.0 0.00 0.00 0.00 68 1017.8
20260508170044 60 331 5.0 9.0 0.00 0.00 0.00 68 1017.8
20260508165548 60 349 3.0 9.0 0.00 0.00 0.00 70 1017.8
20260508165037 60 355 4.0 11.0 0.00 0.00 0.00 71 1017.8
20260508164547 59 16 5.0 11.0 0.00 0.00 0.00 71 1017.7
20260508164034 60 360 5.0 9.0 0.00 0.00 0.00 71 1017.8
20260508163542 60 349 4.0 9.0 0.00 0.00 0.00 71 1017.7
20260508163046 60 284 4.0 9.0 0.00 0.00 0.00 70 1017.7
20260508162533 60 355 4.0 9.0 0.00 0.00 0.00 67 1017.7
20260508162041 61 336 5.0 11.0 0.00 0.00 0.00 66 1017.7
20260508161530 61 360 5.0 11.0 0.00 0.00 0.00 66 1017.7
20260508161037 61 26 5.0 9.0 0.00 0.00 0.00 65 1017.7
20260508160602 61 321 4.0 10.0 0.00 0.00 0.00 66 1017.6
20260508160043 61 337 3.0 10.0 0.00 0.00 0.00 67 1017.6
20260508155531 61 335 4.0 9.0 0.00 0.00 0.00 65 1017.6
20260508155100 61 355 4.0 9.0 0.00 0.00 0.00 65 1017.6
20260508154544 60 355 4.0 9.0 0.00 0.00 0.00 64 1017.6
20260508154034 60 14 5.0 9.0 0.00 0.00 0.00 65 1017.7
20260508153543 61 319 4.0 9.0 0.00 0.00 0.00 66 1017.7
20260508153030 61 38 4.0 9.0 0.00 0.00 0.00 66 1017.7
20260508152538 61 355 2.0 8.0 0.00 0.00 0.00 68 1017.7
20260508152107 60 346 3.0 8.0 0.00 0.00 0.00 68 1017.7
20260508151535 61 5 4.0 8.0 0.00 0.00 0.00 67 1017.8
20260508151105 61 350 2.0 10.0 0.00 0.00 0.00 67 1017.8
20260508150532 61 22 5.0 10.0 0.00 0.00 0.00 67 1017.8
20260508150034 61 306 3.0 8.0 0.00 0.00 0.00 67 1017.8
20260508145538 61 355 4.0 11.0 0.00 0.00 0.00 67 1017.8
20260508145047 61 355 5.0 11.0 0.00 0.00 0.00 66 1017.9
20260508144536 61 317 5.0 9.0 0.00 0.00 0.00 66 1017.9
20260508144045 61 333 4.0 8.0 0.00 0.00 0.00 66 1017.9
20260508143550 61 15 4.0 7.0 0.00 0.00 0.00 66 1018.0
20260508143038 61 31 3.0 7.0 0.00 0.00 0.00 67 1017.9
20260508142548 61 325 5.0 8.0 0.00 0.00 0.00 65 1018.0
20260508142036 61 331 4.0 8.0 0.00 0.00 0.00 66 1018.0
20260508141545 61 360 3.0 6.0 0.00 0.00 0.00 66 1018.0
20260508141029 60 333 3.0 8.0 0.00 0.00 0.00 67 1018.0
20260508140538 60 340 4.0 8.0 0.00 0.00 0.00 67 1018.0
20260508140040 60 25 3.0 8.0 0.00 0.00 0.00 69 1018.1
20260508135529 60 335 4.0 8.0 0.00 0.00 0.00 69 1018.1
20260508135037 60 45 3.0 8.0 0.00 0.00 0.00 70 1018.0
20260508134543 60 34 3.0 8.0 0.00 0.00 0.00 71 1018.0
20260508134034 60 300 4.0 8.0 0.00 0.00 0.00 71 1018.0
20260508133543 60 340 3.0 8.0 0.00 0.00 0.00 71 1018.1
20260508133032 60 41 4.0 8.0 0.00 0.00 0.00 70 1018.1
20260508132542 60 348 4.0 9.0 0.00 0.00 0.00 69 1018.1
20260508132048 60 17 4.0 9.0 0.00 0.00 0.00 68 1018.1
20260508131536 60 9 4.0 8.0 0.00 0.00 0.00 68 1018.0
20260508131044 60 355 4.0 9.0 0.00 0.00 0.00 69 1018.1
20260508130533 60 337 4.0 9.0 0.00 0.00 0.00 68 1018.1
20260508130036 60 306 4.0 6.0 0.00 0.00 0.00 66 1018.1
20260508125559 61 9 3.0 9.0 0.00 0.00 0.00 65 1018.0
20260508125045 61 355 5.0 9.0 0.00 0.00 0.00 66 1018.0
20260508124533 61 355 4.0 10.0 0.00 0.00 0.00 65 1018.0
20260508124041 62 355 5.0 10.0 0.00 0.00 0.00 64 1018.0
20260508123529 62 344 4.0 9.0 0.00 0.00 0.00 63 1018.0
20260508123052 64 5 2.0 8.0 0.00 0.00 0.00 58 1018.0
20260508122540 64 247 2.0 8.0 0.00 0.00 0.00 55 1018.0
20260508122048 64 360 2.0 5.0 0.00 0.00 0.00 51 1018.0
20260508121538 65 50 0.0 4.0 0.00 0.00 0.00 48 1018.0
20260508121038 65 50 1.0 6.0 0.00 0.00 0.00 47 1018.0
20260508120546 66 103 1.0 6.0 0.00 0.00 0.00 50 1018.0
20260508120047 67 96 2.0 11.0 0.00 0.00 0.00 48 1018.0
20260508115536 67 36 4.0 11.0 0.00 0.00 0.00 45 1018.0
20260508115043 67 301 2.0 9.0 0.00 0.00 0.00 47 1018.0
20260508114529 68 61 3.0 9.0 0.00 0.00 0.00 48 1018.0
20260508114038 68 49 1.0 6.0 0.00 0.00 0.00 49 1018.0
20260508113548 67 115 3.0 7.0 0.00 0.00 0.00 50 1018.0
20260508113056 67 90 3.0 7.0 0.00 0.00 0.00 53 1018.0
20260508112539 66 23 3.0 8.0 0.00 0.00 0.00 56 1018.0
20260508112029 65 51 3.0 7.0 0.00 0.00 0.00 55 1018.0
20260508111538 66 153 3.0 6.0 0.00 0.00 0.00 55 1018.0
20260508111047 66 44 2.0 5.0 0.00 0.00 0.00 57 1018.0
20260508110535 66 90 2.0 8.0 0.00 0.00 0.00 55 1018.1
20260508110054 65 59 2.0 8.0 0.00 0.00 0.00 57 1018.0
20260508105606 65 88 1.0 8.0 0.00 0.00 0.00 56 1018.1
20260508105034 64 355 4.0 8.0 0.00 0.00 0.00 60 1018.1
20260508104543 64 72 4.0 6.0 0.00 0.00 0.00 59 1018.2
20260508104033 64 51 3.0 9.0 0.00 0.00 0.00 59 1018.2
20260508103558 64 49 4.0 9.0 0.00 0.00 0.00 60 1018.2
20260508103045 64 51 2.0 6.0 0.00 0.00 0.00 62 1018.2
20260508102533 63 105 2.0 5.0 0.00 0.00 0.00 63 1018.2
20260508102041 63 111 2.0 6.0 0.00 0.00 0.00 62 1018.3
20260508101547 62 74 2.0 7.0 0.00 0.00 0.00 64 1018.4